This is the latest recevied weather packets stored in our database for station/object KN6KS. If no packets are shown the sender has not sent any weather packets the latest 10 day(s).
| Time | Temp. | Humidity | Pressure | Rain* | Wind** | Luminosity | Snow |
|---|---|---|---|---|---|---|---|
| 1777944146 | 13.89° C | 60% | 1011.9 hPa | 0 mm | - | 128 W/m² | - |
| 1777943842 | 13.89° C | 60% | 1011.6 hPa | 0 mm | - | 123 W/m² | - |
| 1777943539 | 13.89° C | 60% | 1011.8 hPa | 0 mm | - | 96 W/m² | - |
| 1777943235 | 13.89° C | 59% | 1011.8 hPa | 0 mm | - | 86 W/m² | - |
| 1777942932 | 14.44° C | 59% | 1011.8 hPa | 0 mm | - | 124 W/m² | - |
| 1777942628 | 13.89° C | 58% | 1011.9 hPa | 0 mm | - | 115 W/m² | - |
| 1777942325 | 14.44° C | 58% | 1011.7 hPa | 0 mm | - | 88 W/m² | - |
| 1777942022 | 14.44° C | 56% | 1011.7 hPa | 0 mm | - | 264 W/m² | - |
| 1777941718 | 15° C | 56% | 1011.8 hPa | 0 mm | - | 301 W/m² | - |
| 1777941416 | 15° C | 55% | 1011.6 hPa | 0 mm | - | 336 W/m² | - |
| 1777941113 | 15° C | 55% | 1011.7 hPa | 0 mm | - | 376 W/m² | - |
| 1777940809 | 15° C | 55% | 1011.6 hPa | 0 mm | - | 129 W/m² | - |
| 1777940507 | 15° C | 55% | 1011.7 hPa | 0 mm | - | 337 W/m² | - |
| 1777940204 | 15° C | 55% | 1011.3 hPa | 0 mm | - | 347 W/m² | - |
| 1777939902 | 15.56° C | 53% | 1011.4 hPa | 0 mm | - | 364 W/m² | - |
| 1777939599 | 15° C | 53% | 1011.4 hPa | 0 mm | - | 372 W/m² | - |
| 1777939297 | 15° C | 52% | 1011.6 hPa | 0 mm | - | 374 W/m² | - |
| 1777938993 | 15° C | 51% | 1011.5 hPa | 0 mm | - | 383 W/m² | - |
| 1777938689 | 15.56° C | 51% | 1011.4 hPa | 0 mm | - | 406 W/m² | - |
| 1777938386 | 15.56° C | 51% | 1011.6 hPa | 0 mm | - | 412 W/m² | - |
| 1777938084 | 15.56° C | 51% | 1011.4 hPa | 0 mm | - | 451 W/m² | - |
| 1777937779 | 15.56° C | 51% | 1011.5 hPa | 0 mm | - | 455 W/m² | - |
| 1777937475 | 15.56° C | 50% | 1011.6 hPa | 0 mm | - | 445 W/m² | - |
| 1777937174 | 16.11° C | 48% | 1011.7 hPa | 0 mm | - | 485 W/m² | - |
| 1777936870 | 15.56° C | 48% | 1011.8 hPa | 0 mm | - | 503 W/m² | - |
* Rain latest hour (hover to see other rain measurements)
** Current wind speed in m/s (hover to see current wind gust speed)